Probability
0 0 0 0 0 0 0 0 0 0 0 0 0 0 0 0 0 0 0 0 0 0 0 0 0 0 0 0 0 1 2 3 3 2 2 2 2 1 1 1 0 0 0 0 1 0 0 0 0
0 0 0 0 0 0 0 0 0 0 0 0 0 0 0 0 0 0 0 0 0 0 0 0 0 0 0 0 0 0 1 1 1 1 1 1 1 1 2 1 0 0 0 0 1 1 0 0 0
0 0 0 0 0 0 0 0 0 0 0 0 0 0 0 0 0 0 0 0 0 0 0 0 0 0 1 0 0 0 0 0 0 0 0 0 0 1 1 1 0 0 0 0 0 1 1 0 0
0 0 0 0 0 0 0 0 0 0 0 0 1 1 1 0 1 1 2 1 1 0 0 0 0 0 0 0 0 0 0 0 0 0 0 0 0 0 0 0 0 0 0 0 0 0 0 0 0
0 0 0 0 0 0 0 0 0 0 0 1 2 2 1 1 2 2 2 2 1 0 0 0 0 0 0 0 0 0 0 0 0 0 0 1 1 0 0 0 0 0 0 0 0 0 0 0 0
0 0 0 0 0 0 0 0 0 0 0 1 2 3 2 1 1 1 1 1 1 0 0 0 0 0 0 0 0 0 0 0 0 0 0 1 1 1 1 0 0 0 0 1 1 2 1 0 0
0 0 0 0 0 0 0 0 0 0 0 1 2 2 2 1 0 0 0 0 0 0 0 0 0 0 0 0 0 0 0 0 0 0 0 1 1 1 1 1 1 0 1 1 2 3 2 1 1
1 0 0 0 0 0 0 0 0 0 1 2 2 2 1 0 0 0 0 0 0 0 0 0 0 0 0 0 0 0 0 0 0 0 0 0 0 1 1 2 2 1 1 2 3 3 3 2 3
2 1 0 0 0 0 0 0 0 0 1 2 2 1 0 0 0 0 0 0 0 0 0 0 0 0 0 0 0 0 0 0 0 0 0 0 0 0 0 1 2 2 1 2 3 3 2 1 1
3 1 0 0 0 0 0 0 0 0 1 1 1 0 0 1 0 0 0 0 0 0 0 0 0 0 0 0 0 0 0 0 0 0 0 0 0 0 0 0 1 1 1 2 3 2 0 0 0
3 1 0 0 0 0 0 0 0 0 0 0 0 0 0 0 0 0 0 0 0 0 0 0 0 0 0 0 0 0 0 0 0 0 0 0 0 0 0 0 0 0 1 2 2 1 0 0 0
2 1 0 0 0 0 0 0 0 0 0 0 0 0 0 0 0 0 0 0 0 0 0 0 0 0 0 0 0 0 0 0 0 0 0 0 0 0 0 0 0 0 0 1 1 0 0 0 0
1 0 0 0 0 0 0 0 0 0 0 0 0 0 0 0 0 0 0 0 0 0 0 0 0 0 0 0 0 0 0 0 0 0 0 0 0 0 0 0 0 0 0 1 0 0 0 0 0
0 0 0 0 0 0 0 0 0 0 0 0 0 0 0 0 0 0 0 0 0 0 0 0 0 0 0 0 0 0 0 0 0 0 0 0 0 0 0 0 0 0 0 0 0 0 0 0 0
0 0 0 0 0 0 0 0 0 0 0 0 0 0 0 0 0 0 0 0 0 0 0 0 0 0 0 0 0 0 0 0 0 0 0 0 0 0 0 0 0 0 0 0 0 0 0 0 0
0 0 0 0 0 0 0 0 0 0 0 0 0 0 0 0 0 0 0 0 0 0 0 0 0 0 0 0 0 0 0 0 0 0 0 0 0 0 0 0 0 0 0 0 0 0 0 0 0
0 0 0 0 0 0 0 0 0 0 0 0 0 0 0 0 0 0 0 0 0 0 0 0 0 0 0 0 0 0 0 0 0 0 0 0 0 0 0 0 0 0 0 0 0 0 0 0 0
0 0 0 0 0 0 0 0 0 0 0 0 0 0 0 0 0 0 0 0 0 0 0 0 0 0 0 0 0 0 0 0 0 0 0 0 0 0 0 0 0 0 0 0 0 0 0 0 0
0 0 0 0 0 0 0 0 0 0 0 0 0 0 0 0 0 0 0 0 0 0 0 0 0 0 0 0 0 0 0 0 0 0 0 0 0 0 0 0 0 0 0 0 0 0 0 0 0
0 0 0 0 0 0 0 0 0 0 0 0 0 0 0 0 0 0 0 0 0 0 0 0 0 0 0 0 0 0 0 0 0 0 0 0 0 0 0 0 0 0 0 0 0 0 0 0 0
0 0 0 0 0 0 0 0 0 0 0 0 0 0 0 0 0 0 0 0 0 0 0 0 0 0 0 0 0 0 0 0 0 0 0 0 0 0 0 0 0 0 0 0 0 0 0 0 0
0 0 0 0 0 0 0 0 0 0 0 0 0 0 0 0 0 0 0 0 0 0 0 0 0 0 0 0 0 0 0 0 0 0 0 0 0 0 0 0 0 0 0 0 0 0 0 0 0
0 0 0 0 0 0 0 0 0 0 0 0 0 0 0 0 0 0 0 0 0 0 0 0 0 0 0 0 0 0 0 0 0 0 0 0 0 0 0 0 0 0 0 0 0 0 0 0 0
0 0 0 0 0 0 0 0 0 0 0 0 0 0 0 0 0 0 0 0 0 0 0 0 0 0 0 0 0 0 0 0 0 0 0 0 0 0 0 0 0 0 0 0 0 0 0 0 0
0 0 0 0 0 0 0 0 0 0 0 0 0 0 0 0 0 0 0 0 0 0 0 0 0 0 0 0 0 0 0 0 0 0 0 0 0 0 0 0 0 0 0 0 0 0 0 0 0
0 0 0 0 0 0 0 0 0 0 0 0 0 0 0 0 0 0 0 0 0 0 0 0 0 0 0 0 0 0 0 0 0 0 0 0 0 0 0 0 0 0 0 0 0 0 0 0 0
0 0 0 0 0 0 0 0 0 0 0 0 0 0 0 0 0 0 0 0 0 0 0 0 0 0 0 0 0 0 0 0 0 0 0 0 0 0 0 0 0 0 0 0 0 0 0 0 0
0 0 0 0 0 0 0 0 0 0 0 0 0 0 0 0 0 0 0 0 0 0 0 0 0 0 0 0 0 0 0 0 0 0 0 0 0 0 0 0 0 0 0 0 0 0 0 0 0
0 0 0 0 0 0 0 0 0 0 0 0 0 0 0 0 0 0 0 0 0 0 0 0 0 0 0 0 0 0 0 0 0 0 0 0 0 0 0 0 0 0 0 0 0 0 0 0 0
0 0 0 0 0 0 0 0 0 0 0 0 0 0 0 0 0 0 0 0 0 0 0 0 0 0 0 0 0 0 0 0 0 0 0 0 0 0 0 0 0 0 0 0 0 0 0 0 0
Wind_Speed
9 6 3 2 2 1 2 2 2 2 1 0 4 6 7 6 4 5 3 8 11 9 7 8 10 9 8 8 7 6 6 6 5 4 4 4 4 4 3 3 2 2 2 2 1 1 1 1 1
6 5 2 2 2 0 2 2 3 3 4 3 5 6 7 6 5 6 4 9 11 10 7 8 10 9 8 8 7 7 6 5 5 4 4 3 3 3 2 2 1 1 1 1 1 0 0 1 0
6 3 2 2 1 2 3 3 4 2 2 3 4 4 5 5 5 5 7 12 10 8 7 8 11 9 9 8 7 6 5 5 4 4 3 3 2 2 1 1 1 1 1 1 1 1 2 2 2
3 1 1 1 2 3 4 3 2 1 1 3 5 5 4 3 4 7 12 12 10 8 6 8 11 9 9 8 7 6 5 4 3 3 2 2 1 0 1 1 2 1 2 2 2 2 3 3 3
2 2 1 1 2 2 2 3 4 2 2 3 6 6 3 2 8 12 12 11 10 7 6 7 10 9 8 7 6 5 4 3 2 1 1 0 1 1 2 2 3 2 2 3 3 3 4 4 4
2 2 1 1 1 1 2 2 2 2 4 5 7 6 3 3 8 10 10 9 9 8 6 6 10 10 9 8 6 5 4 3 2 1 2 2 3 3 3 3 3 3 3 4 4 4 5 5 5
3 2 2 2 1 1 2 1 3 3 3 4 6 6 4 4 7 9 9 9 8 8 7 5 5 6 8 8 7 6 5 4 3 3 3 4 5 5 5 5 5 5 5 5 5 5 5 5 6
3 3 1 1 2 2 2 1 2 5 3 4 5 8 7 7 7 7 7 7 6 6 6 5 4 4 4 4 7 6 5 4 4 4 4 5 6 6 6 6 6 6 5 5 6 6 6 6 7
2 3 2 3 4 3 3 1 0 2 4 3 3 6 8 11 9 7 5 4 4 5 4 5 4 4 3 3 5 4 4 4 3 3 5 4 3 3 4 5 6 6 5 6 6 6 7 6 6
3 2 5 4 4 3 2 3 3 3 5 4 5 6 10 11 10 9 7 6 6 6 5 4 4 4 3 3 2 1 1 1 1 1 2 2 1 2 1 4 5 5 5 5 6 6 6 4 2
4 4 3 2 3 3 2 2 2 6 3 7 11 12 12 10 9 9 8 7 7 6 5 4 4 4 3 2 1 0 1 0 1 1 1 1 1 1 1 1 2 3 3 2 4 3 2 1 1
2 3 3 2 2 2 3 1 1 5 7 9 14 15 12 11 10 10 9 7 6 5 5 4 4 3 2 2 1 1 0 0 0 1 1 1 1 1 1 1 1 1 1 1 2 1 2 2 2
2 2 3 3 3 3 2 2 2 3 6 9 12 12 11 10 9 7 7 7 7 6 5 4 4 4 3 3 1 2 1 1 0 1 1 1 1 1 1 1 1 1 1 1 1 1 2 2 2
3 3 2 3 3 3 3 3 2 4 8 10 12 11 10 10 9 7 7 7 7 6 5 4 4 4 4 3 2 1 1 1 1 1 1 1 1 0 1 1 1 1 1 1 1 1 1 2 1
2 0 2 2 2 2 1 1 4 6 9 10 10 10 9 9 9 9 9 8 8 7 5 5 5 5 5 3 2 2 1 1 2 1 2 2 2 1 0 1 1 1 1 1 1 2 1 1 2
1 2 1 4 2 1 3 4 5 6 9 9 9 8 8 8 9 8 9 8 8 7 6 5 5 5 4 3 2 2 1 2 1 1 2 3 3 2 1 0 1 1 1 1 1 1 1 2 2
2 1 2 4 2 1 3 5 5 6 8 9 8 8 8 7 6 7 9 9 9 8 7 6 5 5 4 3 2 2 2 2 1 1 1 2 2 2 1 0 1 1 1 1 1 1 0 1 2
2 1 2 3 2 1 2 5 5 6 8 9 8 7 7 8 8 8 8 9 8 8 7 7 5 4 3 2 2 2 2 2 1 1 1 1 1 2 1 1 1 1 1 1 1 1 1 1 1
3 2 3 5 3 2 4 5 6 7 6 7 7 7 7 8 6 6 8 8 8 7 7 6 5 3 3 2 1 1 1 1 1 1 1 1 1 1 1 1 1 1 0 1 1 0 1 1 1
1 1 3 4 3 2 3 6 6 7 9 9 9 9 9 7 6 7 7 7 8 7 7 6 6 4 3 2 2 1 1 1 1 1 1 1 1 1 1 1 1 1 0 1 1 1 1 1 1
2 4 5 4 2 1 1 4 2 3 4 5 6 8 10 12 12 10 9 8 7 8 8 7 6 5 4 3 2 2 2 2 2 2 2 2 2 2 1 1 1 1 0 1 1 1 1 0 1
3 6 5 3 0 2 1 2 5 3 4 6 8 7 9 10 11 10 10 9 8 8 7 8 6 5 4 3 3 3 2 1 2 2 2 3 3 3 2 2 1 1 1 1 1 1 1 2 0
6 4 2 1 1 2 2 1 6 0 4 7 8 8 9 10 12 12 11 10 9 8 7 7 6 5 4 4 4 3 2 1 1 1 2 2 3 3 3 2 1 1 1 1 1 1 1 1 2
2 3 4 4 4 2 2 2 4 4 7 7 7 7 8 9 9 9 8 8 6 6 6 7 7 5 4 4 4 4 3 2 0 1 1 2 2 3 3 2 2 1 1 1 1 1 1 1 2
4 5 4 5 4 4 2 1 6 7 6 8 9 8 8 9 9 9 9 8 8 8 7 7 7 5 4 4 4 4 4 3 2 2 2 2 2 2 3 2 1 1 1 1 1 1 1 2 2
1 6 6 3 2 4 3 1 6 5 2 4 6 7 8 8 9 10 11 10 10 9 8 8 7 6 5 4 4 3 3 2 2 2 2 2 2 3 3 2 1 1 1 0 1 1 1 1 2
3 2 5 6 1 1 3 3 5 3 2 3 5 7 8 9 10 10 10 9 9 9 9 9 9 6 5 5 4 4 3 2 2 2 1 2 2 2 1 1 1 1 1 1 1 1 0 1 1
4 5 5 4 2 1 4 2 4 4 3 3 6 8 8 8 8 9 9 9 9 9 8 8 8 7 6 5 5 4 3 3 3 1 1 2 2 1 1 1 1 1 1 1 1 1 0 1 0
1 2 4 3 4 4 1 6 6 7 7 7 8 8 9 10 10 10 9 9 8 8 8 8 7 6 6 5 4 4 3 2 2 1 2 2 1 1 0 1 1 1 1 1 1 0 1 1 1
4 4 5 3 1 3 3 7 7 5 5 6 7 7 8 9 9 9 9 8 7 8 8 8 7 7 7 6 5 4 3 3 2 2 2 1 1 1 1 0 1 1 1 1 1 0 0 1 0
Wind_Direction
167 142 113 88 74 64 254 257 214 202 234 347 80 89 86 65 87 132 168 146 141 142 140 136 133 129 124 119 114 108 103 99 95 94 91 93 91 88 86 93 98 95 93 91 89 94 97 92 77
144 137 107 76 97 138 249 237 213 193 175 144 90 88 83 79 88 110 127 142 139 140 140 138 136 130 125 121 115 108 101 97 93 89 85 84 85 82 76 69 68 66 77 98 126 165 231 210 204
149 156 126 102 182 192 214 234 222 213 174 139 91 64 82 113 118 131 145 141 135 137 139 141 137 133 129 123 117 113 105 97 93 86 80 76 77 73 64 46 5 335 323 300 272 261 265 257 248
136 93 68 99 234 225 205 224 230 232 91 79 102 76 62 89 134 137 141 141 138 140 141 145 141 140 136 130 126 121 115 105 96 90 83 80 64 1 307 290 295 300 290 291 288 274 263 263 255
91 105 73 266 251 265 247 225 203 185 108 100 103 95 63 43 116 130 141 143 142 145 146 148 146 147 144 141 138 133 129 122 109 94 74 229 251 276 276 269 269 269 275 281 284 282 274 267 260
79 86 102 241 248 284 275 241 153 106 116 111 104 106 112 134 128 138 143 146 147 151 155 157 157 157 158 157 156 156 158 163 179 232 273 280 280 280 279 273 274 268 272 278 281 278 274 270 264
134 132 190 210 217 275 234 213 145 138 136 134 122 108 132 165 153 148 147 145 150 153 156 162 168 170 172 173 175 178 182 191 212 242 267 279 286 285 277 269 265 265 268 275 278 273 272 272 268
154 125 188 197 177 211 235 244 163 144 137 121 120 136 162 188 162 145 140 138 145 152 158 167 175 181 188 189 194 197 201 210 229 248 267 283 291 291 281 273 264 267 271 276 279 278 277 273 271
105 91 200 210 188 203 215 179 84 92 101 75 93 144 159 159 148 136 134 137 152 160 171 176 182 189 193 204 214 214 221 229 249 270 280 300 311 302 283 274 267 268 274 279 282 285 283 277 275
119 176 220 210 190 192 206 177 162 100 90 83 84 105 135 148 152 155 159 163 165 170 177 174 172 186 191 206 202 243 254 264 264 273 288 302 299 303 323 303 303 293 290 291 293 292 291 286 284
174 206 230 234 205 189 197 222 157 129 141 161 153 155 156 159 165 168 174 173 173 169 162 161 158 164 170 192 155 177 241 274 305 299 279 308 344 347 353 342 327 316 308 306 304 306 302 285 268
196 252 231 220 232 187 187 194 152 165 186 175 161 160 165 170 176 178 177 175 164 151 153 155 141 132 141 127 124 154 167 89 338 293 289 48 24 359 340 332 315 311 302 308 304 296 297 292 273
219 264 279 237 238 237 194 206 192 192 168 158 155 160 170 176 180 184 168 160 155 152 150 141 123 117 116 105 101 90 96 125 168 39 12 64 78 347 332 323 326 313 313 318 308 307 307 301 293
221 225 270 267 260 263 213 227 154 199 158 157 163 174 180 180 177 170 158 155 161 159 153 133 117 115 108 99 92 84 84 98 68 42 17 49 87 67 13 1 348 326 316 305 303 313 309 300 302
229 240 328 271 233 246 154 265 199 187 157 163 173 178 182 184 175 171 170 164 162 159 147 133 123 109 104 98 87 83 83 78 61 41 29 32 41 54 51 25 333 309 313 341 5 352 350 331 320
101 86 284 270 211 217 130 244 229 187 164 175 182 181 181 187 182 174 164 157 155 148 141 135 121 113 108 100 90 84 77 75 64 50 36 32 40 55 50 26 305 305 340 0 360 6 347 326 315
44 143 244 285 233 158 162 240 237 197 178 185 191 188 182 184 178 171 162 156 153 150 143 130 122 121 115 105 87 76 70 71 73 61 45 23 25 33 44 345 301 320 7 357 324 21 0 314 314
214 208 250 257 261 166 206 249 251 210 192 193 196 190 182 181 183 171 157 150 145 143 137 132 128 125 114 89 66 50 44 33 29 31 20 18 8 16 32 344 329 350 16 354 345 327 327 285 294
184 189 238 253 227 192 227 249 242 222 206 198 193 194 188 190 181 161 151 145 138 137 137 139 137 143 123 99 92 78 24 332 336 318 327 341 346 2 19 350 341 349 355 285 299 345 349 326 347
174 216 251 277 242 200 250 257 245 210 207 196 191 191 190 179 166 162 155 151 150 151 150 146 148 155 149 145 163 176 183 249 268 304 326 313 323 333 337 352 322 328 343 343 359 63 60 345 45
235 219 226 236 307 273 257 311 269 237 214 203 198 190 185 180 175 170 163 162 156 156 159 156 160 159 154 141 107 64 45 20 359 333 319 302 297 304 308 303 293 301 184 236 251 172 134 87 346
234 238 228 232 74 297 161 276 285 230 196 202 203 191 185 182 174 169 166 166 167 167 159 154 160 158 155 141 124 124 132 197 249 257 278 297 302 302 292 287 278 268 232 233 246 182 161 134 74
216 226 206 209 122 350 345 139 292 235 203 216 210 197 187 179 173 172 174 174 171 166 158 155 154 157 158 148 145 141 153 217 260 286 309 312 307 304 302 291 288 273 247 238 239 189 164 156 161
155 58 33 42 65 351 267 150 271 236 213 205 205 195 182 173 171 171 171 163 163 160 154 153 152 161 164 154 153 156 170 194 236 300 309 309 305 308 314 310 304 279 249 235 216 198 175 173 164
80 82 37 13 15 273 275 151 250 253 226 193 187 186 177 169 166 165 164 167 168 166 163 160 157 167 175 166 170 176 186 186 201 231 245 271 289 293 300 309 297 284 252 231 187 164 176 170 164
150 129 144 166 237 293 345 262 269 285 235 168 167 167 166 172 174 175 176 175 176 174 169 165 167 173 179 176 184 189 192 188 212 225 227 243 250 262 285 298 292 293 285 283 147 156 200 183 179
126 154 162 133 123 349 321 309 318 360 59 136 154 160 175 182 183 181 180 180 179 177 178 176 174 177 183 182 179 187 194 193 214 235 239 253 262 277 308 325 322 335 352 19 89 85 163 141 175
146 148 96 101 114 11 327 286 243 242 225 196 183 186 193 190 187 184 183 184 183 183 182 178 177 181 185 182 183 185 195 202 211 213 254 272 284 307 348 352 358 357 5 38 63 40 49 97 76
101 89 102 111 145 140 263 276 239 216 214 205 207 201 194 193 192 189 189 187 183 179 178 180 183 181 181 184 186 180 194 203 194 202 241 257 268 281 1 15 25 18 14 34 60 38 56 88 45
168 162 138 133 223 152 163 269 279 237 225 207 214 212 203 197 193 188 183 179 179 183 184 186 186 184 186 183 177 182 186 185 190 221 247 248 250 263 227 100 42 21 18 40 95 356 46 110 139